Погода Кировский

Погода Кировский : погода сейчас, прогноз погоды и архив. Всё, что Вы хотите узнать о погоде Кировский!

Хотите узнать прогноз погоды Кировский? Тогда Вам сюда: Погода Кировский

Поиск расширенной информации на нашем сайте:

Другие новости

Новости СМИ2

Главная страница сайта

Новости сайта

02.10.2013

Напоминаем, что на нашем новом сайте вы можете получить высокодетализированные прогнозы погоды по пунктам России, СНГ и мира (включающие важные для авиации метеовеличины, такие как направление и скорость ветра, видимость, явления погоды, количество и форма облачности, нижняя и верхняя граница облачности), а также ознакомиться с разнообразными материалами по авиационной метеорологии и подборкой полезных ссылок на эту тему.

Сайт Метеоцентр.Азия посвящён разработке технологий оптимизации авиаметеорологического обслуживания, включая проектирование и перспективное создание нескольких автоматизированных авиаметеорологических систем:
- система выпуска высокодетальных прогностических карт явлений погоды для нижнего воздушного пространства по России и ближнему зарубежью;
- система верификации прогнозов TAF (выпускаемых синоптиками официальных АМСГ РФ и ближнего зарубежья) и AUTOTAF (выпускаемых сайтом Метеоцентр.Азия) - выявление ошибок, онлайн-сопоставление с фактической погодой METAR, автоматическое внесение коррективов в прогнозы при резком отклонении фактической погоды от прогноза, подсчёт оправдываемости прогнозов по элементам и в целом;
- система обработки, анализа и отображения авиаметеорологической информации для применения провайдерами метеорологической информации.

Рекомендуем: http://seoxo.ru/ особенности продвижения сайта визитки.

Погода Кировский - сегодня

Время (UTC), дата Ветер
(°,м/с) 
Видим.   Явления Облачность Т
(°С)
Тd
(°С)
f(%) Тe
(°С)
Pmin
(гПа)
dP
(гПа)
Po
(мм)
O2
(г/м3)
Тmin Tmax R s Состояние
почвы
21 19.01.17 тихо ()   20000 м    6/0 верхняя 
[Ci fib]
-25.6 -28.4 77 -26  1024.3  -0.3  758  339  -27.4      32  равномерный
сухой снег
100% 
00 20.01.17 тихо ()   10 км  дым  4/0 верхняя 
[Ci fib]
-25.4 -28.2 77 -25  1025.1  0.8  758  339  -27.6         
03 20.01.17 360 (С) 20000 м    ясно 
-16 -20 71 -16  1024.6  0.1  759  326           
06 20.01.17 290 (З) 20000 м    ясно 
-15 -20.8 61 -17  1025.6  759  325           
09 20.01.17 230 (ЮЗ) 10 км    ясно 
-19.1 -21.6 81 -19  1026.7  0.9  760  331    -14.3       
12 20.01.17 240 (ЮЗ) 10 км    ясно 
-25.7 -28.2 80 -26  1028.4  1.2  761  340           
15 20.01.17 тихо ()   10 км    ясно 
-27.6 -30.6 76 -28  1029  0.6  761  343           
18 20.01.17 190 (Ю) 10 км    ясно 
-28.9 -32.2 73 -30  1029.3  0.2  761  345           
21 20.01.17 200 (Ю) 10 км    ясно 
-27.4 -30.2 77 -28  1029.5  0.3  762  343  -29.1      32  равномерный
сухой снег
100% 
00 21.01.17 170 (Ю) 10 км    ясно 
-25.3 -28.1 77 -26  1030.1  0.7  762  340           
03 21.01.17 170 (Ю) 20000 м    3/0 верхняя 
[Ci fib]
-15.8 -20.8 65 -16  1027.9  -1.7  761  327           
06 21.01.17 250 (З) 20000 м    10/0 верхняя 
[Cs]
-14.6 -20.5 61 -15  1025.6  -2.2  759  325           
09 21.01.17 тихо ()   10 км    10/0 средняя 
[Ac As]
-17.3 -21.1 72 -17  1025  -0.7  759  328    -14.3       
12 21.01.17 040 (СВ) 10 км    10/0 средняя 
[Ac As]
-18.3 -21.4 77 -19  1024.2  -0.8  758  329           
15 21.01.17 220 (ЮЗ) 10 км    10/0 средняя 
[As trans]
-19.3 -22 79 -20  1023.4  -0.8  758  330           
18 21.01.17 тихо ()   10 км    10/0 средняя 
[As trans]
-20.7 -22.9 82 -21  1022.9  -0.6  757  332           
21 21.01.17 230 (ЮЗ) 10 км    10/0 средняя 
[As trans]
-21.9 -24.1 82 -22  1023.1  0.1  757  333  -21.9      32  равномерный
сухой снег
100% 
00 22.01.17 тихо ()   10 км    8/0 средняя, верхняя 
[Ac trans|Ci sp]
-21.8 -24.1 82 -22  1024.5  1.4  758  334  -23.7         
03 22.01.17 310 (СЗ) 20000 м    8/0 верхняя 
[Ci fib]
-16.9 -21.9 65 -19  1024.1  -0.1  758  327           
06 22.01.17 310 (СЗ) 20000 м    1/0 верхняя 
[Ci fib]
-16.9 -22.5 62 -23  1023.6  -0.5  758  327           
09 22.01.17 340 (С) 20000 м    1/0 верхняя 
[Ci fib]
-19.8 -23.7 71 -23  1025.4  1.6  759  331    -16.2       
12 22.01.17 030 (СВ) 20000 м    3/0 средняя, верхняя 
[Ac trans|Ci fib]
-22.4 -24.9 80 -23  1026.7  1.2  760  335           
15 22.01.17 230 (ЮЗ) 20000 м    8/0 средняя, верхняя 
[Ac trans|Ci fib]
-24.9 -27.3 80 -25  1027.6  0.7  760  339           
18 22.01.17 тихо ()   10 км  слаб. снег  10/0 средняя 
[As op]
-28.3 -31.3 76 -28  1027.9  0.1  760  344           
21 22.01.17 190 (Ю) 20000 м  {снег}  6/0 верхняя 
[Ci fib]
-31.2 -34.5 73 -32  1027.9  -0.1  760  348  -31.6    0.0  32  равномерный
сухой снег
100% 
Время (UTC), дата Ветер
(°,м/с) 
Видим.   Явления Облачность Т
(°С)
Тd
(°С)
f(%) Тe
(°С)
Pmin
(гПа)
dP
(гПа)
Po
(мм)
O2
(г/м3)
Тmin Tmax R s Состояние
почвы

Для получения пояснительной информации подведите курсор к названию столбца.

ПОГОДА Кировский - архив

Всё, что Вы хотите узнать о погоде Кировский - удобно и подробно!

Выберите нужную дату (начиная с 1 января 2015* года) и нажмите кнопку "Найти".
Будут отображены архивные сводки погоды по пункту Кировский, начиная с указанной даты.


Отображать данные в формате CSV (для использования в таблицах Excel)


Внимание! Наш архив погоды предназначен исключительно для личного некоммерческого использования в познавательных целях. Если Вам необходимы официальные справки о состоянии погоды (для производственных, юридических, коммерческих и т.п. целей), обращайтесь в органы Росгидромета.

*Примечание: данная дата относится к архиву по метеостанциям СССР (Россия, СНГ, Балтия).
Архив по метеостанциям Зарубежной Европы и Азии (кроме Китая) хранится 10 дней, по другим регионам земного шара (Китай, Африка, Америка, Австралия, Океания) - 1 день.

Кировский - район местоположения метеостанции


Название, широта, долгота, высота метеостанции:
Кировский 45.1°ш. 133.5°д. 98 м над ур. моря [Российская Федерация]

Дополнительная информация

В oтличие oт бoльшинства пoгoдных сайтoв мы публикуем пoдрoбную метеoинфoрмацию в детальнoм прoфессиoнальнoм фoрмате.

Характеристики температуры и влажнoсти вoздуха измеряются на высoте 2 м в тени вдали oт зданий и деревьев.
Скoрoсть ветра измеряется на высoте 10 м (на урoвне рoста челoвека скoрoсть ветра ниже в 1.5-2 раза). Если метеoстанция нахoдится в гoрoде или в лесу, тo скoрoсть ветра занижена на 2-4 м/с пo сравнению с oткрытым местoм. Скoрoсть ветра над акватoриями крупных рек и oзёр, а также на вершинах хoлмoв на 2-5 м/с выше, чем в oбычных услoвиях.
Атмoсфернoе давление в разных тoчках местнoсти мoжет значительнo oтличаться oт давления на метеoстанции, в зависимoсти oт услoвий рельефа (при пoдъёме на 10 м давление пoнижается примернo на 1 мм рт.ст.).